sat.trackr.live / text

‹ back to catalog

ARABSAT-7B (BADR-8)

NORAD 56757 · 2023-075A

PAYLOAD ACTIVE UNKNOWN

§ Identity

Operator
Country
AB
Launch date
2023-05-27
Launch site
AFETR
Launch vehicle
Mass (kg)
RCS (m²)

Purposes: comms

External: N2YO · Heavens-Above · Gunter

§ Orbital elements

Epoch: 2026-09-19T19:11:38.543424Z

Period
1,436.10 min
Inclination
0.0763°
Eccentricity
0.0001619
Mean motion
1.00271476 rev/d
Perigee alt
35,779.9 km
Apogee alt
35,793.5 km
Semi-major
42,164.8 km
B*
0.0000e+0
RAAN
22.8428°
Arg perigee
0.9722°
Mean anomaly
288.8180°
Rev number
1,206

§ Raw data

ARABSAT-7B (BADR-8)1 56757U 23075A   26262.79975166  .00000140  00000+0  00000+0 0  99982 56757   0.0763  22.8428 0001619   0.9722 288.8180  1.00271476 12063

JSON: /api/v1/satellites/56757 · /tle

For live sub-satellite position, see the globe view (requires WebGL).

§ Visibility from observer

Set your observer location to see the next 7 days of passes ≥ 10°. The values pass through the URL so the page stays shareable.

No JS? Fill the form by hand. The geolocation button needs JavaScript.